contact:dominique.lefevre@mio.osupytheas.fr, maurice.libes@osupytheas.fr, didier.mallarino@osupytheas.fr
Project:EMSO http://www.emso-fr.org/EMSO-France
Depth: 2436.0 m
Title:EMSO Ligure Ouest : Data MII capteur MICROCAT
DateTime_Computer,Latitude,Longitude,Temperature,Conductivity,Pressure,DateTime_Instrument
DateTime_Computer,Latitude,Longitude,degC,S m-1,dbar,DateTime_Instrument
2023-11-18T00:00:37Z,42.805,6.029,13.3051,4.60166,2470.74,2023-11-18T02:03:04Z
2023-11-18T00:03:40Z,42.805,6.029,13.3056,4.60185,2470.74,2023-11-18T02:06:08Z
2023-11-18T00:06:43Z,42.805,6.029,13.3061,4.60178,2470.74,2023-11-18T02:09:11Z
2023-11-18T00:09:46Z,42.805,6.029,13.3070,4.60192,2470.74,2023-11-18T02:12:14Z
2023-11-18T00:12:49Z,42.805,6.029,13.3065,4.60178,2470.717,2023-11-18T02:15:17Z
2023-11-18T00:15:52Z,42.805,6.029,13.3062,4.60185,2470.754,2023-11-18T02:18:20Z
2023-11-18T00:18:56Z,42.805,6.029,13.3053,4.60170,2470.693,2023-11-18T02:21:23Z
2023-11-18T00:21:59Z,42.805,6.029,13.3061,4.60187,2470.74,2023-11-18T02:24:26Z
2023-11-18T00:25:02Z,42.805,6.029,13.3055,4.60180,2470.74,2023-11-18T02:27:29Z
2023-11-18T00:28:05Z,42.805,6.029,13.3057,4.60170,2470.74,2023-11-18T02:30:32Z
2023-11-18T00:31:08Z,42.805,6.029,13.3058,4.60158,2470.74,2023-11-18T02:33:35Z
2023-11-18T00:34:11Z,42.805,6.029,13.3058,4.60186,2470.717,2023-11-18T02:36:38Z
2023-11-18T00:37:14Z,42.805,6.029,13.3056,4.60172,2470.707,2023-11-18T02:39:41Z
2023-11-18T00:40:17Z,42.805,6.029,13.3069,4.60198,2470.73,2023-11-18T02:42:44Z
2023-11-18T00:43:20Z,42.805,6.029,13.3064,4.60166,2470.73,2023-11-18T02:45:48Z
2023-11-18T00:46:23Z,42.805,6.029,13.3065,4.60174,2470.74,2023-11-18T02:48:51Z
2023-11-18T00:49:26Z,42.805,6.029,13.3061,4.60197,2470.73,2023-11-18T02:51:54Z
2023-11-18T00:52:29Z,42.805,6.029,13.3055,4.60169,2470.717,2023-11-18T02:54:57Z
2023-11-18T00:55:33Z,42.805,6.029,13.3061,4.60181,2470.74,2023-11-18T02:58:00Z
2023-11-18T00:58:36Z,42.805,6.029,13.3061,4.60173,2470.717,2023-11-18T03:01:03Z
2023-11-18T01:01:39Z,42.805,6.029,13.3061,4.60173,2470.73,2023-11-18T03:04:06Z
2023-11-18T01:04:42Z,42.805,6.029,13.3057,4.60167,2470.717,2023-11-18T03:07:09Z
2023-11-18T01:07:45Z,42.805,6.029,13.3064,4.60160,2470.73,2023-11-18T03:10:12Z
2023-11-18T01:10:48Z,42.805,6.029,13.3051,4.60185,2470.693,2023-11-18T03:13:15Z
2023-11-18T01:13:51Z,42.805,6.029,13.3060,4.60176,2470.707,2023-11-18T03:16:18Z
2023-11-18T01:16:54Z,42.805,6.029,13.3072,4.60175,2470.717,2023-11-18T03:19:21Z
2023-11-18T01:19:57Z,42.805,6.029,13.3055,4.60162,2470.693,2023-11-18T03:22:25Z
2023-11-18T01:23:00Z,42.805,6.029,13.3059,4.60160,2470.693,2023-11-18T03:25:28Z
2023-11-18T01:26:03Z,42.805,6.029,13.3058,4.60151,2470.717,2023-11-18T03:28:31Z
2023-11-18T01:29:06Z,42.805,6.029,13.3055,4.60157,2470.707,2023-11-18T03:31:34Z
2023-11-18T01:32:09Z,42.805,6.029,13.3053,4.60178,2470.717,2023-11-18T03:34:37Z
2023-11-18T01:35:13Z,42.805,6.029,13.3046,4.60160,2470.707,2023-11-18T03:37:40Z
2023-11-18T01:38:16Z,42.805,6.029,13.3064,4.60165,2470.693,2023-11-18T03:40:43Z
2023-11-18T01:41:19Z,42.805,6.029,13.3061,4.60151,2470.693,2023-11-18T03:43:46Z
2023-11-18T01:44:22Z,42.805,6.029,13.3055,4.60147,2470.67,2023-11-18T03:46:49Z
2023-11-18T01:47:25Z,42.805,6.029,13.3059,4.60158,2470.693,2023-11-18T03:49:52Z
2023-11-18T01:50:28Z,42.805,6.029,13.3063,4.60158,2470.679,2023-11-18T03:52:55Z
2023-11-18T01:53:31Z,42.805,6.029,13.3056,4.60180,2470.693,2023-11-18T03:55:58Z
2023-11-18T01:56:34Z,42.805,6.029,13.3063,4.60174,2470.73,2023-11-18T03:59:02Z
2023-11-18T01:59:37Z,42.805,6.029,13.3060,4.60174,2470.684,2023-11-18T04:02:05Z
2023-11-18T02:02:40Z,42.805,6.029,13.3063,4.60158,2470.67,2023-11-18T04:05:08Z
2023-11-18T02:05:43Z,42.805,6.029,13.3060,4.60160,2470.693,2023-11-18T04:08:11Z
2023-11-18T02:08:46Z,42.805,6.029,13.3053,4.60159,2470.693,2023-11-18T04:11:14Z
2023-11-18T02:11:50Z,42.805,6.029,13.3048,4.60167,2470.67,2023-11-18T04:14:17Z
2023-11-18T02:14:53Z,42.805,6.029,13.3051,4.60170,2470.661,2023-11-18T04:17:20Z
2023-11-18T02:17:56Z,42.805,6.029,13.3050,4.60166,2470.67,2023-11-18T04:20:23Z
2023-11-18T02:20:59Z,42.805,6.029,13.3045,4.60157,2470.693,2023-11-18T04:23:26Z
2023-11-18T02:24:02Z,42.805,6.029,13.3066,4.60148,2470.646,2023-11-18T04:26:29Z
2023-11-18T02:27:05Z,42.805,6.029,13.3049,4.60137,2470.684,2023-11-18T04:29:32Z
2023-11-18T02:30:08Z,42.805,6.029,13.3049,4.60135,2470.67,2023-11-18T04:32:35Z
2023-11-18T02:33:11Z,42.805,6.029,13.3049,4.60133,2470.684,2023-11-18T04:35:39Z
2023-11-18T02:36:14Z,42.805,6.029,13.3054,4.60155,2470.693,2023-11-18T04:38:42Z
2023-11-18T02:39:17Z,42.805,6.029,13.3046,4.60156,2470.693,2023-11-18T04:41:45Z
2023-11-18T02:42:20Z,42.805,6.029,13.3046,4.60151,2470.693,2023-11-18T04:44:48Z
2023-11-18T02:45:23Z,42.805,6.029,13.3048,4.60142,2470.684,2023-11-18T04:47:51Z
2023-11-18T02:48:27Z,42.805,6.029,13.3057,4.60150,2470.707,2023-11-18T04:50:54Z
2023-11-18T02:51:30Z,42.805,6.029,13.3048,4.60138,2470.67,2023-11-18T04:53:57Z
2023-11-18T02:54:33Z,42.805,6.029,13.3052,4.60140,2470.684,2023-11-18T04:57:00Z
2023-11-18T02:57:36Z,42.805,6.029,13.3049,4.60149,2470.684,2023-11-18T05:00:03Z
2023-11-18T03:00:39Z,42.805,6.029,13.3058,4.60163,2470.684,2023-11-18T05:03:06Z
2023-11-18T03:03:42Z,42.805,6.029,13.3056,4.60137,2470.646,2023-11-18T05:06:09Z
2023-11-18T03:06:45Z,42.805,6.029,13.3057,4.60165,2470.67,2023-11-18T05:09:12Z
2023-11-18T03:09:48Z,42.805,6.029,13.3061,4.60173,2470.67,2023-11-18T05:12:15Z
2023-11-18T03:12:51Z,42.805,6.029,13.3061,4.60150,2470.67,2023-11-18T05:15:19Z
2023-11-18T03:15:54Z,42.805,6.029,13.3048,4.60140,2470.646,2023-11-18T05:18:22Z
2023-11-18T03:18:57Z,42.805,6.029,13.3052,4.60140,2470.661,2023-11-18T05:21:25Z
2023-11-18T03:22:00Z,42.805,6.029,13.3046,4.60150,2470.646,2023-11-18T05:24:28Z
2023-11-18T03:25:03Z,42.805,6.029,13.3056,4.60144,2470.624,2023-11-18T05:27:31Z
2023-11-18T03:28:07Z,42.805,6.029,13.3048,4.60148,2470.67,2023-11-18T05:30:34Z
2023-11-18T03:31:10Z,42.805,6.029,13.3056,4.60152,2470.684,2023-11-18T05:33:37Z
2023-11-18T03:34:13Z,42.805,6.029,13.3046,4.60150,2470.661,2023-11-18T05:36:40Z
2023-11-18T03:37:16Z,42.805,6.029,13.3047,4.60144,2470.646,2023-11-18T05:39:43Z
2023-11-18T03:40:19Z,42.805,6.029,13.3056,4.60138,2470.661,2023-11-18T05:42:46Z
2023-11-18T03:43:22Z,42.805,6.029,13.3052,4.60137,2470.661,2023-11-18T05:45:49Z
2023-11-18T03:46:25Z,42.805,6.029,13.3047,4.60152,2470.624,2023-11-18T05:48:53Z
2023-11-18T03:49:28Z,42.805,6.029,13.3056,4.60137,2470.624,2023-11-18T05:51:56Z
2023-11-18T03:52:31Z,42.805,6.029,13.3051,4.60145,2470.661,2023-11-18T05:54:59Z
2023-11-18T03:55:34Z,42.805,6.029,13.3058,4.60138,2470.646,2023-11-18T05:58:02Z
2023-11-18T03:58:37Z,42.805,6.029,13.3048,4.60157,2470.684,2023-11-18T06:01:05Z
2023-11-18T04:01:40Z,42.805,6.029,13.3059,4.60151,2470.661,2023-11-18T06:04:08Z
2023-11-18T04:04:44Z,42.805,6.029,13.3050,4.60153,2470.684,2023-11-18T06:07:11Z
2023-11-18T04:07:47Z,42.805,6.029,13.3055,4.60138,2470.624,2023-11-18T06:10:14Z
2023-11-18T04:10:50Z,42.805,6.029,13.3061,4.60157,2470.67,2023-11-18T06:13:17Z
2023-11-18T04:13:53Z,42.805,6.029,13.3055,4.60150,2470.661,2023-11-18T06:16:20Z
2023-11-18T04:16:56Z,42.805,6.029,13.3070,4.60157,2470.646,2023-11-18T06:19:23Z
2023-11-18T04:19:59Z,42.805,6.029,13.3058,4.60167,2470.661,2023-11-18T06:22:26Z
2023-11-18T04:23:02Z,42.805,6.029,13.3068,4.60169,2470.67,2023-11-18T06:25:29Z
2023-11-18T04:26:05Z,42.805,6.029,13.3050,4.60167,2470.67,2023-11-18T06:28:33Z
2023-11-18T04:29:08Z,42.805,6.029,13.3066,4.60189,2470.661,2023-11-18T06:31:36Z
2023-11-18T04:32:11Z,42.805,6.029,13.3075,4.60193,2470.661,2023-11-18T06:34:39Z
2023-11-18T04:35:14Z,42.805,6.029,13.3069,4.60180,2470.67,2023-11-18T06:37:42Z
2023-11-18T04:38:17Z,42.805,6.029,13.3058,4.60192,2470.661,2023-11-18T06:40:45Z
2023-11-18T04:41:21Z,42.805,6.029,13.3050,4.60157,2470.661,2023-11-18T06:43:48Z
2023-11-18T04:44:24Z,42.805,6.029,13.3055,4.60157,2470.67,2023-11-18T06:46:51Z
2023-11-18T04:47:27Z,42.805,6.029,13.3046,4.60175,2470.646,2023-11-18T06:49:54Z
2023-11-18T04:50:30Z,42.805,6.029,13.3058,4.60173,2470.67,2023-11-18T06:52:57Z
2023-11-18T04:53:33Z,42.805,6.029,13.3050,4.60144,2470.67,2023-11-18T06:56:00Z
2023-11-18T04:56:36Z,42.805,6.029,13.3046,4.60148,2470.693,2023-11-18T06:59:03Z
2023-11-18T04:59:39Z,42.805,6.029,13.3051,4.60129,2470.624,2023-11-18T07:02:06Z
2023-11-18T05:02:42Z,42.805,6.029,13.3048,4.60144,2470.646,2023-11-18T07:05:10Z
2023-11-18T05:05:45Z,42.805,6.029,13.3046,4.60147,2470.67,2023-11-18T07:08:13Z
2023-11-18T05:08:48Z,42.805,6.029,13.3050,4.60137,2470.646,2023-11-18T07:11:16Z
2023-11-18T05:11:51Z,42.805,6.029,13.3046,4.60135,2470.646,2023-11-18T07:14:19Z
2023-11-18T05:14:54Z,42.805,6.029,13.3047,4.60146,2470.646,2023-11-18T07:17:22Z
2023-11-18T05:17:57Z,42.805,6.029,13.3052,4.60158,2470.646,2023-11-18T07:20:25Z
2023-11-18T05:21:01Z,42.805,6.029,13.3052,4.60152,2470.661,2023-11-18T07:23:28Z
2023-11-18T05:24:04Z,42.805,6.029,13.3056,4.60142,2470.67,2023-11-18T07:26:31Z
2023-11-18T05:27:07Z,42.805,6.029,13.3049,4.60147,2470.624,2023-11-18T07:29:34Z
2023-11-18T05:30:10Z,42.805,6.029,13.3048,4.60144,2470.707,2023-11-18T07:32:37Z
2023-11-18T05:33:13Z,42.805,6.029,13.3057,4.60165,2470.684,2023-11-18T07:35:40Z
2023-11-18T05:36:16Z,42.805,6.029,13.3058,4.60192,2470.661,2023-11-18T07:38:43Z
2023-11-18T05:39:19Z,42.805,6.029,13.3073,4.60174,2470.684,2023-11-18T07:41:46Z
2023-11-18T05:42:22Z,42.805,6.029,13.3062,4.60170,2470.656,2023-11-18T07:44:50Z
2023-11-18T05:45:25Z,42.805,6.029,13.3067,4.60162,2470.67,2023-11-18T07:47:53Z
2023-11-18T05:48:28Z,42.805,6.029,13.3059,4.60160,2470.693,2023-11-18T07:50:56Z
2023-11-18T05:51:31Z,42.805,6.029,13.3048,4.60151,2470.67,2023-11-18T07:53:59Z
2023-11-18T05:54:34Z,42.805,6.029,13.3056,4.60164,2470.67,2023-11-18T07:57:02Z
2023-11-18T05:57:38Z,42.805,6.029,13.3061,4.60174,2470.67,2023-11-18T08:00:05Z
2023-11-18T06:00:41Z,42.805,6.029,13.3070,4.60174,2470.67,2023-11-18T08:03:08Z
2023-11-18T06:03:44Z,42.805,6.029,13.3078,4.60202,2470.67,2023-11-18T08:06:11Z
2023-11-18T06:06:47Z,42.805,6.029,13.3083,4.60183,2470.67,2023-11-18T08:09:14Z
2023-11-18T06:09:50Z,42.805,6.029,13.3077,4.60201,2470.646,2023-11-18T08:12:17Z
2023-11-18T06:12:53Z,42.805,6.029,13.3072,4.60183,2470.693,2023-11-18T08:15:20Z
2023-11-18T06:15:56Z,42.805,6.029,13.3066,4.60192,2470.67,2023-11-18T08:18:23Z
2023-11-18T06:18:59Z,42.805,6.029,13.3086,4.60190,2470.684,2023-11-18T08:21:27Z
2023-11-18T06:22:02Z,42.805,6.029,13.3068,4.60159,2470.693,2023-11-18T08:24:30Z
2023-11-18T06:25:05Z,42.805,6.029,13.3076,4.60189,2470.67,2023-11-18T08:27:33Z
2023-11-18T06:28:08Z,42.805,6.029,13.3073,4.60181,2470.67,2023-11-18T08:30:36Z
2023-11-18T06:31:11Z,42.805,6.029,13.3064,4.60207,2470.693,2023-11-18T08:33:39Z
2023-11-18T06:34:14Z,42.805,6.029,13.3072,4.60200,2470.74,2023-11-18T08:36:42Z
2023-11-18T06:37:18Z,42.805,6.029,13.3089,4.60186,2470.717,2023-11-18T08:39:45Z
2023-11-18T06:40:21Z,42.805,6.029,13.3054,4.60194,2470.693,2023-11-18T08:42:48Z
2023-11-18T06:43:24Z,42.805,6.029,13.3076,4.60195,2470.717,2023-11-18T08:45:51Z
2023-11-18T06:46:27Z,42.805,6.029,13.3058,4.60187,2470.717,2023-11-18T08:48:54Z
2023-11-18T06:49:30Z,42.805,6.029,13.3070,4.60177,2470.717,2023-11-18T08:51:57Z
2023-11-18T06:52:33Z,42.805,6.029,13.3081,4.60205,2470.707,2023-11-18T08:55:00Z
2023-11-18T06:55:36Z,42.805,6.029,13.3088,4.60186,2470.707,2023-11-18T08:58:04Z
2023-11-18T06:58:39Z,42.805,6.029,13.3063,4.60220,2470.717,2023-11-18T09:01:07Z
2023-11-18T07:01:42Z,42.805,6.029,13.3090,4.60203,2470.717,2023-11-18T09:04:10Z
2023-11-18T07:04:45Z,42.805,6.029,13.3093,4.60195,2470.754,2023-11-18T09:07:13Z
2023-11-18T07:07:48Z,42.805,6.029,13.3102,4.60186,2470.74,2023-11-18T09:10:16Z
2023-11-18T07:10:51Z,42.805,6.029,13.3105,4.60166,2470.73,2023-11-18T09:13:19Z
2023-11-18T07:13:55Z,42.805,6.029,13.3078,4.60225,2470.717,2023-11-18T09:16:22Z
2023-11-18T07:16:58Z,42.805,6.029,13.3075,4.60240,2470.754,2023-11-18T09:19:25Z
2023-11-18T07:20:01Z,42.805,6.029,13.3068,4.60225,2470.754,2023-11-18T09:22:28Z
2023-11-18T07:23:04Z,42.805,6.029,13.3099,4.60222,2470.787,2023-11-18T09:25:31Z
2023-11-18T07:26:07Z,42.805,6.029,13.3106,4.60214,2470.74,2023-11-18T09:28:34Z
2023-11-18T07:29:10Z,42.805,6.029,13.3112,4.60137,2470.707,2023-11-18T09:31:37Z
2023-11-18T07:32:12Z,42.805,6.029,13.3070,4.60214,2470.8,2023-11-18T09:34:39Z
2023-11-18T07:35:15Z,42.805,6.029,13.3131,4.60221,2470.73,2023-11-18T09:37:42Z
2023-11-18T07:38:18Z,42.805,6.029,13.3085,4.60184,2470.763,2023-11-18T09:40:45Z
2023-11-18T07:41:21Z,42.805,6.029,13.3101,4.60215,2470.763,2023-11-18T09:43:48Z
2023-11-18T07:44:24Z,42.805,6.029,13.3109,4.60171,2470.763,2023-11-18T09:46:52Z
2023-11-18T07:47:27Z,42.805,6.029,13.3106,4.60187,2470.777,2023-11-18T09:49:55Z
2023-11-18T07:50:30Z,42.805,6.029,13.3108,4.60162,2470.8,2023-11-18T09:52:58Z
2023-11-18T07:53:33Z,42.805,6.029,13.3104,4.60168,2470.8,2023-11-18T09:56:01Z
2023-11-18T07:56:36Z,42.805,6.029,13.3116,4.60206,2470.81,2023-11-18T09:59:04Z
2023-11-18T07:59:39Z,42.805,6.029,13.3111,4.60175,2470.787,2023-11-18T10:02:07Z
2023-11-18T08:02:43Z,42.805,6.029,13.3078,4.60160,2470.81,2023-11-18T10:05:10Z
2023-11-18T08:05:46Z,42.805,6.029,13.3084,4.60158,2470.763,2023-11-18T10:08:13Z
2023-11-18T08:08:49Z,42.805,6.029,13.3085,4.60189,2470.8,2023-11-18T10:11:16Z
2023-11-18T08:11:52Z,42.805,6.029,13.3087,4.60140,2470.787,2023-11-18T10:14:19Z
2023-11-18T08:14:55Z,42.805,6.029,13.3108,4.60166,2470.8,2023-11-18T10:17:22Z
2023-11-18T08:17:58Z,42.805,6.029,13.3115,4.60160,2470.777,2023-11-18T10:20:25Z
2023-11-18T08:21:01Z,42.805,6.029,13.3069,4.60132,2470.787,2023-11-18T10:23:29Z
2023-11-18T08:24:04Z,42.805,6.029,13.3076,4.60157,2470.824,2023-11-18T10:26:32Z
2023-11-18T08:27:07Z,42.805,6.029,13.3073,4.60149,2470.763,2023-11-18T10:29:35Z
2023-11-18T08:30:10Z,42.805,6.029,13.3068,4.60160,2470.824,2023-11-18T10:32:38Z
2023-11-18T08:33:13Z,42.805,6.029,13.3072,4.60166,2470.787,2023-11-18T10:35:41Z
2023-11-18T08:36:16Z,42.805,6.029,13.3084,4.60195,2470.787,2023-11-18T10:38:44Z
2023-11-18T08:39:20Z,42.805,6.029,13.3066,4.60151,2470.847,2023-11-18T10:41:47Z
2023-11-18T08:42:23Z,42.805,6.029,13.3082,4.60151,2470.81,2023-11-18T10:44:50Z
2023-11-18T08:45:26Z,42.805,6.029,13.3114,4.60145,2470.833,2023-11-18T10:47:53Z
2023-11-18T08:48:29Z,42.805,6.029,13.3067,4.60158,2470.81,2023-11-18T10:50:56Z
2023-11-18T08:51:32Z,42.805,6.029,13.3094,4.60155,2470.824,2023-11-18T10:53:59Z
2023-11-18T08:54:35Z,42.805,6.029,13.3065,4.60140,2470.81,2023-11-18T10:57:02Z
2023-11-18T08:57:38Z,42.805,6.029,13.3056,4.60179,2470.81,2023-11-18T11:00:06Z
2023-11-18T09:00:41Z,42.805,6.029,13.3060,4.60193,2470.833,2023-11-18T11:03:09Z
2023-11-18T09:03:44Z,42.805,6.029,13.3075,4.60151,2470.833,2023-11-18T11:06:12Z
2023-11-18T09:06:47Z,42.805,6.029,13.3063,4.60177,2470.833,2023-11-18T11:09:15Z
2023-11-18T09:09:50Z,42.805,6.029,13.3057,4.60180,2470.833,2023-11-18T11:12:18Z
2023-11-18T09:12:54Z,42.805,6.029,13.3065,4.60195,2470.833,2023-11-18T11:15:21Z
2023-11-18T09:15:57Z,42.805,6.029,13.3073,4.60190,2470.847,2023-11-18T11:18:24Z
2023-11-18T09:19:00Z,42.805,6.029,13.3078,4.60142,2470.857,2023-11-18T11:21:27Z
2023-11-18T09:22:03Z,42.805,6.029,13.3057,4.60186,2470.857,2023-11-18T11:24:30Z
2023-11-18T09:25:06Z,42.805,6.029,13.3079,4.60153,2470.847,2023-11-18T11:27:33Z
2023-11-18T09:28:09Z,42.805,6.029,13.3096,4.60165,2470.833,2023-11-18T11:30:36Z
2023-11-18T09:31:11Z,42.805,6.029,13.3095,4.60179,2470.847,2023-11-18T11:33:38Z
2023-11-18T09:34:14Z,42.805,6.029,13.3111,4.60134,2470.847,2023-11-18T11:36:41Z
2023-11-18T09:37:17Z,42.805,6.029,13.3065,4.60166,2470.847,2023-11-18T11:39:44Z
2023-11-18T09:40:20Z,42.805,6.029,13.3076,4.60172,2470.857,2023-11-18T11:42:48Z
2023-11-18T09:43:23Z,42.805,6.029,13.3081,4.60217,2470.833,2023-11-18T11:45:51Z
2023-11-18T09:46:26Z,42.805,6.029,13.3073,4.60221,2470.871,2023-11-18T11:48:54Z
2023-11-18T09:49:29Z,42.805,6.029,13.3085,4.60185,2470.871,2023-11-18T11:51:57Z
2023-11-18T09:52:33Z,42.805,6.029,13.3064,4.60190,2470.833,2023-11-18T11:55:00Z
2023-11-18T09:55:36Z,42.805,6.029,13.3064,4.60203,2470.857,2023-11-18T11:58:03Z
2023-11-18T09:58:39Z,42.805,6.029,13.3054,4.60146,2470.857,2023-11-18T12:01:06Z
2023-11-18T10:01:42Z,42.805,6.029,13.3069,4.60180,2470.833,2023-11-18T12:04:09Z
2023-11-18T10:04:45Z,42.805,6.029,13.3086,4.60152,2470.857,2023-11-18T12:07:12Z
2023-11-18T10:07:48Z,42.805,6.029,13.3068,4.60185,2470.847,2023-11-18T12:10:15Z
2023-11-18T10:10:51Z,42.805,6.029,13.3070,4.60205,2470.857,2023-11-18T12:13:18Z
2023-11-18T10:13:54Z,42.805,6.029,13.3069,4.60212,2470.857,2023-11-18T12:16:22Z
2023-11-18T10:16:57Z,42.805,6.029,13.3064,4.60208,2470.857,2023-11-18T12:19:25Z
2023-11-18T10:20:00Z,42.805,6.029,13.3064,4.60186,2470.894,2023-11-18T12:22:28Z
2023-11-18T10:23:03Z,42.805,6.029,13.3067,4.60190,2470.833,2023-11-18T12:25:31Z
2023-11-18T10:26:06Z,42.805,6.029,13.3079,4.60226,2470.894,2023-11-18T12:28:34Z
2023-11-18T10:29:10Z,42.805,6.029,13.3058,4.60186,2470.847,2023-11-18T12:31:37Z
2023-11-18T10:32:13Z,42.805,6.029,13.3063,4.60236,2470.857,2023-11-18T12:34:40Z
2023-11-18T10:35:16Z,42.805,6.029,13.3065,4.60188,2470.833,2023-11-18T12:37:43Z
2023-11-18T10:38:19Z,42.805,6.029,13.3062,4.60203,2470.857,2023-11-18T12:40:46Z
2023-11-18T10:41:22Z,42.805,6.029,13.3067,4.60215,2470.833,2023-11-18T12:43:49Z
2023-11-18T10:44:25Z,42.805,6.029,13.3067,4.60185,2470.847,2023-11-18T12:46:52Z
2023-11-18T10:47:28Z,42.805,6.029,13.3070,4.60202,2470.857,2023-11-18T12:49:55Z
2023-11-18T10:50:31Z,42.805,6.029,13.3068,4.60173,2470.857,2023-11-18T12:52:59Z
2023-11-18T10:53:34Z,42.805,6.029,13.3082,4.60205,2470.833,2023-11-18T12:56:02Z
2023-11-18T10:56:37Z,42.805,6.029,13.3056,4.60225,2470.857,2023-11-18T12:59:05Z
2023-11-18T10:59:40Z,42.805,6.029,13.3068,4.60193,2470.847,2023-11-18T13:02:08Z
2023-11-18T11:02:43Z,42.805,6.029,13.3085,4.60190,2470.88,2023-11-18T13:05:11Z
2023-11-18T11:05:47Z,42.805,6.029,13.3077,4.60193,2470.871,2023-11-18T13:08:14Z
2023-11-18T11:08:50Z,42.805,6.029,13.3057,4.60180,2470.871,2023-11-18T13:11:17Z
2023-11-18T11:11:53Z,42.805,6.029,13.3068,4.60190,2470.847,2023-11-18T13:14:20Z
2023-11-18T11:14:56Z,42.805,6.029,13.3055,4.60193,2470.89,2023-11-18T13:17:23Z
2023-11-18T11:17:59Z,42.805,6.029,13.3069,4.60175,2470.894,2023-11-18T13:20:26Z
2023-11-18T11:21:02Z,42.805,6.029,13.3076,4.60202,2470.857,2023-11-18T13:23:29Z
2023-11-18T11:24:05Z,42.805,6.029,13.3069,4.60179,2470.871,2023-11-18T13:26:33Z
2023-11-18T11:27:08Z,42.805,6.029,13.3063,4.60203,2470.871,2023-11-18T13:29:36Z
2023-11-18T11:30:10Z,42.805,6.029,13.3069,4.60196,2470.857,2023-11-18T13:32:37Z
2023-11-18T11:33:13Z,42.805,6.029,13.3058,4.60193,2470.871,2023-11-18T13:35:41Z
2023-11-18T11:36:16Z,42.805,6.029,13.3064,4.60203,2470.857,2023-11-18T13:38:44Z
2023-11-18T11:39:19Z,42.805,6.029,13.3070,4.60218,2470.894,2023-11-18T13:41:47Z
2023-11-18T11:42:22Z,42.805,6.029,13.3051,4.60173,2470.833,2023-11-18T13:44:50Z
2023-11-18T11:45:25Z,42.805,6.029,13.3066,4.60176,2470.857,2023-11-18T13:47:53Z
2023-11-18T11:48:29Z,42.805,6.029,13.3067,4.60186,2470.88,2023-11-18T13:50:56Z
2023-11-18T11:51:32Z,42.805,6.029,13.3058,4.60174,2470.871,2023-11-18T13:53:59Z
2023-11-18T11:54:35Z,42.805,6.029,13.3069,4.60190,2470.857,2023-11-18T13:57:02Z
2023-11-18T11:57:38Z,42.805,6.029,13.3060,4.60180,2470.857,2023-11-18T14:00:05Z
2023-11-18T12:00:41Z,42.805,6.029,13.3067,4.60179,2470.857,2023-11-18T14:03:08Z
2023-11-18T12:03:44Z,42.805,6.029,13.3055,4.60198,2470.857,2023-11-18T14:06:11Z
2023-11-18T12:06:47Z,42.805,6.029,13.3064,4.60188,2470.833,2023-11-18T14:09:15Z
2023-11-18T12:09:50Z,42.805,6.029,13.3070,4.60208,2470.833,2023-11-18T14:12:18Z
2023-11-18T12:12:53Z,42.805,6.029,13.3066,4.60190,2470.871,2023-11-18T14:15:21Z
2023-11-18T12:15:56Z,42.805,6.029,13.3062,4.60198,2470.857,2023-11-18T14:18:24Z
2023-11-18T12:18:59Z,42.805,6.029,13.3067,4.60170,2470.857,2023-11-18T14:21:27Z
2023-11-18T12:22:03Z,42.805,6.029,13.3069,4.60185,2470.847,2023-11-18T14:24:30Z
2023-11-18T12:25:06Z,42.805,6.029,13.3058,4.60197,2470.871,2023-11-18T14:27:33Z
2023-11-18T12:28:09Z,42.805,6.029,13.3056,4.60159,2470.871,2023-11-18T14:30:36Z
2023-11-18T12:31:12Z,42.805,6.029,13.3069,4.60183,2470.833,2023-11-18T14:33:39Z
2023-11-18T12:34:15Z,42.805,6.029,13.3079,4.60187,2470.857,2023-11-18T14:36:42Z
2023-11-18T12:37:18Z,42.805,6.029,13.3055,4.60173,2470.847,2023-11-18T14:39:45Z
2023-11-18T12:40:21Z,42.805,6.029,13.3079,4.60179,2470.833,2023-11-18T14:42:48Z
2023-11-18T12:43:24Z,42.805,6.029,13.3061,4.60170,2470.871,2023-11-18T14:45:52Z
2023-11-18T12:46:27Z,42.805,6.029,13.3055,4.60165,2470.871,2023-11-18T14:48:55Z
2023-11-18T12:49:30Z,42.805,6.029,13.3063,4.60175,2470.857,2023-11-18T14:51:58Z
2023-11-18T12:52:33Z,42.805,6.029,13.3061,4.60169,2470.833,2023-11-18T14:55:01Z
2023-11-18T12:55:36Z,42.805,6.029,13.3056,4.60157,2470.833,2023-11-18T14:58:04Z
2023-11-18T12:58:40Z,42.805,6.029,13.3056,4.60170,2470.81,2023-11-18T15:01:07Z
2023-11-18T13:01:43Z,42.805,6.029,13.3056,4.60160,2470.833,2023-11-18T15:04:10Z
2023-11-18T13:04:46Z,42.805,6.029,13.3058,4.60157,2470.847,2023-11-18T15:07:13Z
2023-11-18T13:07:49Z,42.805,6.029,13.3061,4.60157,2470.824,2023-11-18T15:10:16Z
2023-11-18T13:10:52Z,42.805,6.029,13.3051,4.60153,2470.857,2023-11-18T15:13:19Z
2023-11-18T13:13:55Z,42.805,6.029,13.3056,4.60175,2470.787,2023-11-18T15:16:22Z
2023-11-18T13:16:58Z,42.805,6.029,13.3054,4.60176,2470.81,2023-11-18T15:19:25Z
2023-11-18T13:20:01Z,42.805,6.029,13.3060,4.60168,2470.833,2023-11-18T15:22:29Z
2023-11-18T13:23:04Z,42.805,6.029,13.3052,4.60156,2470.8,2023-11-18T15:25:32Z
2023-11-18T13:26:07Z,42.805,6.029,13.3053,4.60155,2470.8,2023-11-18T15:28:35Z
2023-11-18T13:29:10Z,42.805,6.029,13.3058,4.60169,2470.824,2023-11-18T15:31:38Z
2023-11-18T13:32:13Z,42.805,6.029,13.3048,4.60162,2470.824,2023-11-18T15:34:41Z
2023-11-18T13:35:17Z,42.805,6.029,13.3061,4.60160,2470.8,2023-11-18T15:37:44Z
2023-11-18T13:38:20Z,42.805,6.029,13.3055,4.60161,2470.824,2023-11-18T15:40:47Z
2023-11-18T13:41:23Z,42.805,6.029,13.3054,4.60172,2470.824,2023-11-18T15:43:50Z
2023-11-18T13:44:26Z,42.805,6.029,13.3066,4.60180,2470.824,2023-11-18T15:46:53Z
2023-11-18T13:47:29Z,42.805,6.029,13.3066,4.60154,2470.777,2023-11-18T15:49:56Z
2023-11-18T13:50:32Z,42.805,6.029,13.3066,4.60181,2470.787,2023-11-18T15:52:59Z
2023-11-18T13:53:35Z,42.805,6.029,13.3050,4.60156,2470.787,2023-11-18T15:56:03Z
2023-11-18T13:56:38Z,42.805,6.029,13.3052,4.60154,2470.824,2023-11-18T15:59:06Z
2023-11-18T13:59:41Z,42.805,6.029,13.3055,4.60161,2470.777,2023-11-18T16:02:09Z
2023-11-18T14:02:44Z,42.805,6.029,13.3058,4.60155,2470.81,2023-11-18T16:05:12Z
2023-11-18T14:05:47Z,42.805,6.029,13.3059,4.60155,2470.787,2023-11-18T16:08:15Z
2023-11-18T14:08:50Z,42.805,6.029,13.3058,4.60170,2470.8,2023-11-18T16:11:18Z
2023-11-18T14:11:54Z,42.805,6.029,13.3048,4.60153,2470.787,2023-11-18T16:14:21Z
2023-11-18T14:14:57Z,42.805,6.029,13.3057,4.60151,2470.787,2023-11-18T16:17:24Z
2023-11-18T14:18:00Z,42.805,6.029,13.3063,4.60162,2470.777,2023-11-18T16:20:27Z
2023-11-18T14:21:03Z,42.805,6.029,13.3058,4.60148,2470.777,2023-11-18T16:23:30Z
2023-11-18T14:24:06Z,42.805,6.029,13.3054,4.60183,2470.787,2023-11-18T16:26:33Z
2023-11-18T14:27:09Z,42.805,6.029,13.3052,4.60166,2470.773,2023-11-18T16:29:36Z
2023-11-18T14:30:12Z,42.805,6.029,13.3061,4.60167,2470.763,2023-11-18T16:32:40Z
2023-11-18T14:33:15Z,42.805,6.029,13.3050,4.60178,2470.787,2023-11-18T16:35:43Z
2023-11-18T14:36:18Z,42.805,6.029,13.3043,4.60144,2470.763,2023-11-18T16:38:46Z
2023-11-18T14:39:21Z,42.805,6.029,13.3045,4.60142,2470.8,2023-11-18T16:41:49Z
2023-11-18T14:42:24Z,42.805,6.029,13.3047,4.60140,2470.787,2023-11-18T16:44:52Z
2023-11-18T14:45:28Z,42.805,6.029,13.3047,4.60145,2470.81,2023-11-18T16:47:55Z
2023-11-18T14:48:31Z,42.805,6.029,13.3049,4.60146,2470.787,2023-11-18T16:50:58Z
2023-11-18T14:51:34Z,42.805,6.029,13.3047,4.60122,2470.763,2023-11-18T16:54:01Z
2023-11-18T14:54:37Z,42.805,6.029,13.3049,4.60154,2470.777,2023-11-18T16:57:04Z
2023-11-18T14:57:40Z,42.805,6.029,13.3066,4.60152,2470.8,2023-11-18T17:00:07Z
2023-11-18T15:00:43Z,42.805,6.029,13.3046,4.60156,2470.777,2023-11-18T17:03:10Z